Location: Stilling
(56.0622°N, 9.9882°E)
Time: 13:20:13
(UTC+00:00)

Helios 1A - Pass Details

Date: 13 July 2020
Orbit: 587 x 600 km, 98.2° (Epoch: 01 August)

Event Time Altitude Azimuth Distance (km) Brightness Sun altitude
Exits shadow 23:02:13 18° 164° (SSE) 1,466 4.4 -12.1°
Maximum altitude 23:05:16 88° 255° (WSW) 598 2.9 -12.2°
Drops below altitude 10° 23:09:28 10° 344° (NNW) 1,934 7.0 -12.2°
Sets 23:11:39 0° 345° (NNW) 2,842 8.3 -12.2°
